Regional Weather Roundup
Issued by NWS Goodland, KS

Home | Current Version | Previous Version | Text Only | Print | Product List | Glossary On
Versions: 1 2 3 4 5 6 7 8 9 10 11 12 13 14 15 16 17 18 19 20 21 22 23 24 25 26 27 28 29 30 31 32 33 34 35 36 37 38 39 40 41 42 43 44 45 46 47 48 49 50
000
ASUS43 KGLD 011608
RWRGLD

GOODLAND FORECAST AREA HOURLY WEATHER ROUNDUP
NATIONAL WEATHER SERVICE GOODLAND KS
900 AM MST SUN MAR 01 2015

...OFFICIAL OBSERVATIONS...

CITY           SKY/WX    TMP DP  RH WIND       PRES   REMARKS
GOODLAND KS    CLOUDY    24  18  77 N10       30.26R WCI  14
HILL CITY KS   MOSUNNY   24  18  77 CALM      30.35R
IMPERIAL NEB     N/A     24  14  65 N8        30.29R
MCCOOK NEB     SUNNY     28  15  58 VRB3      30.32R
AKRON CO       SUNNY     22  14  71 NE9       30.22R
BURLINGTON CO  CLOUDY    23  15  71 N12       30.23R WCI  12
LIMON CO       CLOUDY    18  13  80 N8        30.18R
$$

...UNOFFICIAL OBSERVATIONS...

CITY           SKY/WX    TMP DP  RH WIND       PRES   REMARKS
COLBY KS       CLOUDY    25  21  86 NW6       30.30R
GOVE KS          N/A     25  32 100 MISG        N/A
LENORA KS        N/A     24  32 100 CALM        N/A
NORTON KS      SUNNY     28  18  64 NW7       30.33S
SHARON SPRINGS   N/A     24  22  90 CALM        N/A
KIT CARSON CO    N/A     22  17  82 MISG        N/A
YUMA CO          N/A     24  16  72 N9          N/A
$$


USA.gov is the U.S. government's official web portal to all federal, state and local government web resources and services.